WB8HRV Weather Reports


time (UTC)temp
F
wind
direction
speed
knots
gust
knots
rain 1hr
in
rain 24hr
in
rain mn
in
humidity
%
barometer
mb
20260509023949 60 314 1.7 8.7 0.00 0.00 0.00 73 1010.0
20260509023426 61 252 0.0 1.7 0.00 0.00 0.00 70 1009.6
20260509021949 61 252 0.9 3.5 0.00 0.00 0.00 68 1009.6
20260509021426 62 252 0.0 1.7 0.00 0.00 0.00 65 1009.4
20260509015950 63 250 0.0 2.6 0.00 0.00 0.00 62 1009.2
20260509014950 64 232 0.0 0.9 0.00 0.00 0.00 60 1009.3
20260509013945 64 232 0.9 7.0 0.00 0.00 0.00 59 1009.4
20260509012947 64 213 0.9 5.2 0.00 0.00 0.00 57 1009.5
20260509012426 65 180 0.9 8.7 0.00 0.00 0.00 55 1009.4
20260509010943 66 250 0.9 9.6 0.00 0.00 0.00 53 1009.3
20260509005942 66 251 0.9 8.7 0.00 0.00 0.00 52 1009.3
20260509004941 67 159 0.9 4.3 0.00 0.00 0.00 50 1009.0
20260509003943 67 205 0.9 4.3 0.00 0.00 0.00 48 1008.6
20260509002944 67 201 0.9 3.5 0.00 0.00 0.00 48 1008.6
20260509001942 67 222 0.9 7.8 0.00 0.00 0.00 48 1008.6
20260509000942 67 254 0.0 5.2 0.00 0.00 0.00 48 1008.7
20260508235942 67 171 0.9 3.5 0.00 0.00 0.00 48 1008.7
20260508234943 67 221 0.9 4.3 0.00 0.00 0.00 48 1008.6
20260508233938 67 213 0.9 5.2 0.00 0.00 0.00 49 1008.6
20260508232938 67 165 0.9 7.0 0.00 0.00 0.00 49 1008.7
20260508231940 68 125 0.9 6.1 0.00 0.00 0.00 51 1008.8
20260508231413 68 218 0.9 6.1 0.00 0.00 0.00 47 1008.7
20260508225940 68 214 0.9 4.3 0.00 0.00 0.00 46 1008.6
20260508224935 69 159 0.9 7.8 0.00 0.00 0.00 45 1008.6
20260508223942 69 211 0.9 6.1 0.00 0.00 0.00 45 1008.6
20260508222937 69 142 0.9 4.3 0.00 0.00 0.00 45 1008.4
20260508221936 69 160 0.9 7.8 0.00 0.00 0.00 45 1008.5
20260508220935 69 121 1.7 7.8 0.00 0.00 0.00 44 1008.4
20260508215938 69 226 1.7 5.2 0.00 0.00 0.00 44 1008.3
20260508214935 69 205 0.9 5.2 0.00 0.00 0.00 43 1008.4
20260508213936 69 200 0.9 7.0 0.00 0.00 0.00 43 1008.5
20260508212934 69 238 0.9 7.0 0.00 0.00 0.00 43 1008.6
20260508211934 69 161 1.7 10.4 0.00 0.00 0.00 43 1008.7
20260508210934 70 240 1.7 7.8 0.00 0.00 0.00 41 1008.8
20260508205933 69 194 1.7 9.6 0.00 0.00 0.00 43 1009.0
20260508204934 69 249 0.9 7.8 0.00 0.00 0.00 43 1009.4
20260508204411 69 217 0.9 7.8 0.00 0.00 0.00 44 1009.4
20260508203854 69 247 0.9 9.6 0.00 0.00 0.00 43 1009.5
20260508201931 69 248 1.7 8.7 0.00 0.00 0.00 43 1009.6
20260508201425 69 169 0.9 9.6 0.00 0.00 0.00 43 1009.6
20260508195932 69 215 1.7 7.0 0.00 0.00 0.00 42 1009.7
20260508194931 69 225 1.7 9.6 0.00 0.00 0.00 43 1009.7
20260508194429 69 248 1.7 8.7 0.00 0.00 0.00 42 1009.8
20260508193409 69 214 1.7 7.0 0.00 0.00 0.00 43 1009.9
20260508191931 69 186 0.9 9.6 0.00 0.00 0.00 41 1010.0
20260508190932 69 244 1.7 10.4 0.00 0.00 0.00 40 1010.2
20260508185930 71 231 0.9 9.6 0.00 0.00 0.00 41 1010.4
20260508184928 70 134 1.7 8.7 0.00 0.00 0.00 41 1010.6
20260508183927 69 215 2.6 10.4 0.00 0.00 0.00 39 1010.9
20260508182928 70 241 1.7 16.5 0.00 0.00 0.00 42 1010.9
20260508181927 69 208 1.7 11.3 0.00 0.00 0.00 41 1011.1
20260508180927 69 277 1.7 12.2 0.00 0.00 0.00 42 1011.2
20260508175928 69 246 2.6 15.6 0.00 0.00 0.00 42 1011.2
20260508175407 69 243 1.7 10.4 0.00 0.00 0.00 43 1011.4
20260508173927 68 234 1.7 9.6 0.00 0.00 0.00 42 1011.5
20260508172928 67 232 2.6 9.6 0.00 0.00 0.00 41 1011.8
20260508171928 67 199 1.7 7.8 0.00 0.00 0.00 43 1012.0
20260508171404 68 208 1.7 13.0 0.00 0.00 0.00 44 1012.1
20260508165926 67 238 2.6 13.9 0.00 0.00 0.00 45 1012.3
20260508164926 67 213 1.7 11.3 0.00 0.00 0.00 46 1012.6
20260508164406 67 186 2.6 12.2 0.00 0.00 0.00 46 1012.7
20260508162927 67 134 1.7 12.2 0.00 0.00 0.00 45 1012.9
20260508161929 66 238 1.7 8.7 0.00 0.00 0.00 48 1012.9
20260508160930 66 149 1.7 11.3 0.00 0.00 0.00 48 1013.1
20260508155924 66 202 1.7 7.0 0.00 0.00 0.00 47 1013.1
20260508154927 65 250 3.5 12.2 0.00 0.00 0.00 48 1013.3
20260508153924 65 203 1.7 8.7 0.00 0.00 0.00 49 1013.3
20260508152926 64 159 2.6 13.9 0.00 0.00 0.00 49 1013.7
20260508151926 64 149 2.6 11.3 0.00 0.00 0.00 50 1013.7
20260508150925 64 279 1.7 13.0 0.00 0.00 0.00 50 1013.9
20260508145924 63 208 2.6 10.4 0.00 0.00 0.00 50 1013.9
20260508144926 62 175 2.6 9.6 0.00 0.00 0.00 50 1013.9
20260508143922 62 232 2.6 11.3 0.00 0.00 0.00 50 1014.0
20260508143322 61 209 1.7 10.4 0.00 0.00 0.00 50 1014.2
20260508142954 62 190 0.9 8.7 0.00 0.00 0.00 51 1014.1
20260508141406 60 264 1.7 7.0 0.00 0.00 0.00 52 1014.3
20260508135923 60 252 1.7 7.8 0.00 0.00 0.00 52 1014.4
20260508134922 59 193 1.7 8.7 0.00 0.00 0.00 52 1014.4
20260508133922 58 199 1.7 7.8 0.00 0.00 0.00 54 1014.4
20260508132922 57 197 1.7 7.0 0.00 0.00 0.00 57 1014.4
20260508131925 56 150 0.9 4.3 0.00 0.00 0.00 60 1014.4
20260508130923 55 205 0.9 7.0 0.00 0.00 0.00 61 1014.4
20260508125922 54 186 0.9 2.6 0.00 0.00 0.00 64 1014.3
20260508125414 53 182 0.9 6.1 0.00 0.00 0.00 64 1014.2
20260508123922 53 207 0.0 6.1 0.00 0.00 0.00 66 1014.3
20260508123404 51 181 0.9 3.5 0.00 0.00 0.00 68 1014.2
20260508121924 50 140 0.0 1.7 0.00 0.00 0.00 71 1014.2
20260508121849 49 140 0.0 2.6 0.00 0.00 0.00 70 1014.2
20260508115922 50 159 0.9 4.3 0.00 0.00 0.00 69 1014.2
20260508115406 50 172 0.0 1.7 0.00 0.00 0.00 70 1014.1
20260508113922 49 173 0.0 2.6 0.00 0.00 0.00 70 1014.0
20260508113413 49 180 0.0 0.9 0.00 0.00 0.00 71 1013.9
20260508111919 48 171 0.0 2.6 0.00 0.00 0.00 72 1013.7
20260508110920 48 217 0.0 0.9 0.00 0.00 0.00 73 1013.7
20260508105919 48 221 0.0 0.0 0.00 0.00 0.00 72 1013.6
20260508104921 48 221 0.0 1.7 0.00 0.00 0.00 73 1013.6
20260508104855 48 231 0.0 0.0 0.00 0.00 0.00 73 1013.6
20260508102920 48 231 0.0 1.7 0.00 0.00 0.00 73 1013.5
20260508102838 47 233 0.0 2.6 0.00 0.00 0.00 75 1013.5
20260508100920 47 235 0.0 1.7 0.00 0.00 0.00 77 1013.5
20260508095918 46 241 0.0 0.0 0.00 0.00 0.00 78 1013.5
20260508094917 46 241 0.0 0.0 0.00 0.00 0.00 79 1013.5
20260508093916 45 241 0.0 0.0 0.00 0.00 0.00 79 1013.5
20260508092917 45 241 0.0 0.0 0.00 0.00 0.00 79 1013.5
20260508091917 44 241 0.0 0.0 0.00 0.00 0.00 80 1013.4
20260508090915 44 241 0.0 0.0 0.00 0.00 0.00 80 1013.6
20260508085917 44 241 0.0 0.0 0.00 0.00 0.00 78 1013.6
20260508084912 44 241 0.0 0.0 0.00 0.00 0.00 78 1013.5
20260508083911 44 241 0.0 0.0 0.00 0.00 0.00 78 1013.4
20260508082910 44 241 0.0 0.0 0.00 0.00 0.00 78 1013.4
20260508081908 44 241 0.0 0.0 0.00 0.00 0.00 77 1013.4
20260508080908 45 241 0.0 0.0 0.00 0.00 0.00 77 1013.2
20260508075909 44 241 0.0 0.0 0.00 0.00 0.00 77 1013.2
20260508074912 45 241 0.0 0.0 0.00 0.00 0.00 76 1013.4
20260508073909 45 241 0.0 0.0 0.00 0.00 0.00 76 1013.2
20260508072908 45 241 0.0 0.0 0.00 0.00 0.00 76 1013.3
20260508072808 46 241 0.0 0.0 0.00 0.00 0.00 74 1013.3
20260508072444 45 241 0.0 0.0 0.00 0.00 0.00 75 1013.3
20260508065906 46 241 0.0 0.0 0.00 0.00 0.00 74 1013.4
20260508064905 46 241 0.0 0.0 0.00 0.00 0.00 74 1013.3
20260508064342 46 241 0.0 0.0 0.00 0.00 0.00 74 1013.9
20260508062904 46 241 0.0 0.0 0.00 0.00 0.00 74 1014.0
20260508061902 46 241 0.0 0.0 0.00 0.00 0.00 74 1014.0
20260508060901 46 241 0.0 0.9 0.00 0.00 0.00 73 1014.1
20260508060342 46 241 0.0 0.9 0.00 0.00 0.00 74 1014.1
20260508054900 46 241 0.0 0.0 0.00 0.00 0.00 73 1014.1
20260508053900 46 241 0.0 0.0 0.00 0.00 0.00 72 1014.2
20260508052859 47 241 0.0 0.9 0.00 0.00 0.00 72 1014.1
20260508051858 47 241 0.0 0.0 0.00 0.00 0.00 71 1014.1
20260508050859 47 241 0.0 0.9 0.00 0.00 0.00 70 1014.0
20260508045859 48 241 0.0 1.7 0.00 0.00 0.00 70 1014.0
20260508044857 48 241 0.0 0.9 0.00 0.00 0.00 69 1014.1
20260508043855 48 241 0.0 1.7 0.00 0.00 0.00 68 1014.0
20260508042856 48 243 0.0 0.0 0.00 0.00 0.00 68 1014.0
20260508042259 49 243 0.0 0.9 0.00 0.00 0.00 64 1013.9
20260508041926 49 243 0.0 0.0 0.00 0.00 0.00 66 1014.1
20260508035853 49 244 0.0 1.7 0.00 0.00 0.00 66 1014.2
20260508034852 49 244 0.9 1.7 0.00 0.00 0.00 67 1013.9
20260508033852 48 250 0.0 0.0 0.00 0.00 0.00 69 1014.0
20260508032853 48 250 0.0 0.0 0.00 0.00 0.00 69 1014.1
20260508031852 48 250 0.0 0.0 0.00 0.00 0.00 69 1014.1
20260508030852 49 250 0.0 0.0 0.00 0.00 0.00 68 1014.0
20260508025852 49 250 0.0 0.0 0.00 0.00 0.00 67 1014.0
20260508024851 49 250 0.0 0.0 0.00 0.00 0.00 67 1014.1